Regional Weather Roundup
Issued by NWS

Home | Current Version | Previous Version | Graphics & Text | Print | Product List | Glossary On
Versions: 1 2 3 4 5 6 7 8 9 10 11 12 13 14 15 16 17 18 19 20 21 22 23 24 25 26 27 28 29 30 31 32 33 34 35 36 37 38 39 40 41 42 43 44 45 46 47 48 49 50
000
ASUS43 KMKX 300400
RWRWI

WISCONSIN REGIONAL WEATHER ROUNDUP
NATIONAL WEATHER SERVICE MILWAUKEE/SULLIVAN WI
1100 PM CDT SUN MAY 29 2016

NOTE: "FAIR" INDICATES FEW OR NO CLOUDS BELOW 12,000 FEET WITH NO
SIGNIFICANT WEATHER AND/OR OBSTRUCTIONS TO VISIBILITY.

WIZ001-002-006>008-014>016-023>028-300500-
NORTHWEST WISCONSIN

CITY           SKY/WX    TMP DP  RH WIND       PRES   REMARKS
SUPERIOR ARPT  CLEAR     54  52  92 SW5       29.92S
ASHLAND        CLEAR     55  51  86 SW6       29.93R
HAYWARD        CLEAR     54  52  93 CALM      29.95S
SIREN          MOCLDY    58  55  88 CALM      29.96S
CUMBERLAND     CLEAR     57  55  94 CALM      29.97R
RICE LAKE      CLEAR     61  57  87 CALM      29.98R
CHETEK         FOG       58  58 100 SW3       29.96R VSB 1/2
LADYSMITH      CLEAR     59  55  88 CALM      29.97S
EAU CLAIRE     NOT AVBL
MENOMONIE      PTCLDY    65  56  71 W6        29.97R
NEW RICHMOND   CLEAR     61  55  80 W5        29.97S
OSCEOLA        CLEAR     62  56  81 CALM      29.99R
$$

WIZ003>005-009-010-017-018-300500-
NORTH CENTRAL WISCONSIN

CITY           SKY/WX    TMP DP  RH WIND       PRES   REMARKS
MANITOWISH WTR NOT AVBL
ARBOR VITAE    CLEAR     59  57  93 CALM      29.95R
WOODRUFF       CLEAR     59  57  93 CALM      29.95R
RHINELANDER    FOG       52  51  97 W5        29.96R VSB 1
EAGLE RIVER      N/A     53  53 100 CALM      29.94R FOG
LAND O LAKES   CLEAR     54  53  97 CALM      29.94S
PHILLIPS       CLEAR     55  55 100 CALM      29.96R
TOMAHAWK       PTCLDY    55  53  94 CALM      29.96R
MEDFORD        PTCLDY    62  57  84 W3        29.96R
MERRILL        NOT AVBL
$$

WIZ029-030-035-036-043>047-300500-
CENTRAL WISCONSIN

CITY           SKY/WX    TMP DP  RH WIND       PRES   REMARKS
WAUSAU         CLEAR     61  56  83 CALM      29.94R
MOSINEE        CLEAR     59  55  88 SW5       29.97R
MARSHFIELD     CLEAR     62  55  77 W5        29.97R
STEVENS POINT  CLEAR     59  57  91 CALM      29.97R
WAUPACA        PTCLDY    63  60  90 CALM      29.96S
WAUTOMA        CLEAR     60  56  86 CALM      29.98
WISC RAPIDS    CLEAR     57  54  89 SW3       29.98R
CAMP DOUGLAS   NOT AVBL
$$

WIZ011>013-019>022-031-037>040-048>050-300500-
NORTHEAST WISCONSIN

CITY           SKY/WX    TMP DP  RH WIND       PRES   REMARKS
ANTIGO         MOCLDY    58  55  89 CALM      29.96R
SHAWANO        PTCLDY    66  58  76 SW3       29.94S
OCONTO         CLEAR    N/A N/A N/A CALM      29.92R
STURGEON BAY   NOT AVBL
GREEN BAY      CLEAR     67  58  72 SW6       29.94R
MANITOWOC      NOT AVBL
APPLETON       PTCLDY    63  54  72 VRB5      29.94S
CLINTONVILLE   CLEAR     64  54  68 W3        29.94S
OSHKOSH        PTCLDY    65  57  75 SW3       29.96R
$$

WIZ032>034-041-042-053>061-300500-
SOUTHWEST WISCONSIN

CITY           SKY/WX    TMP DP  RH WIND       PRES   REMARKS
LA CROSSE      PTCLDY    65  60  84 SE5       29.98R
SPARTA         CLEAR     59  56  91 CALM      29.99R
VIROQUA        CLEAR     64  59  81 SW5       30.01R
BOSCOBEL       CLEAR     63  60  90 CALM      30.00R
PRAIRIE DU CHI CLEAR     64  58  83 CALM      30.00R
PLATTEVILLE    CLEAR     66  60  81 SW3       30.02R
$$

WIZ056-057-062-063-064-067-068-300500-
SOUTH CENTRAL WISCONSIN

CITY           SKY/WX    TMP DP  RH WIND       PRES   REMARKS
REEDSBURG      PTCLDY    64  61  92 CALM      29.98R
BARABOO/DELLS  PTCLDY    64  58  83 SW3       29.99R
LONE ROCK      NOT AVBL
MINERAL POINT  CLEAR     66  59  77 W3        30.02R
MADISON        MOCLDY    65  61  87 CALM      29.99R
MIDDLETON      CLOUDY    66  60  81 CALM      30.00R
WATERTOWN      CLOUDY    66  60  81 SW3       29.98R
MONROE         CLEAR     68  57  68 W8        30.00R
JANESVILLE     CLEAR     68  55  64 CALM      29.99
$$

WIZ051-052-058>065-066-070>072-300500-
SOUTHEAST WISCONSIN

CITY           SKY/WX    TMP DP  RH WIND       PRES   REMARKS
MILWAUKEE      PTCLDY    70  58  65 SW8       29.97S
WAUKESHA       CLEAR     64  55  72 SW5       29.99S
MILWAUKEE/TIMM CLEAR     66  54  63 SW5       29.98R
RACINE         CLEAR     69  57  65 W6        29.99S
BURLINGTON     CLEAR     62  58  86 SW5       29.99S
KENOSHA        CLEAR     65  58  78 W5        29.99R
FOND DU LAC    CLOUDY    66  59  78 SW5       29.97R
SHEBOYGAN      CLEAR     64  57  78 W6        29.95R
WEST BEND      CLEAR     66  55  68 W6        29.97R
JUNEAU         CLOUDY    65  59  79 SW5       29.98S
$$

LSZ147-162-300500-
LAKE SUPERIOR

STATION/POSITION TIME  TEMP    WIND        PRES    WAVE
                       AIR SEA DIR/SP/G            HT/PER
                 (UTC) (F)     (DEG/KT/KT) (MB)    (FT/S)
W MID LAKE BUOY  0250   44 38  250/ 12/ 12 1011.9R   1/ 4
DEVILS ISLAND    0300   53     240/ 12/ 13 1012.6R
PORT WING        0210   59     200/  5/  6 1012.9R
SAXON HARBOR     0340   56     180/  3/  5 1012.5S
$$

LMZ867-665-643>646-300500-
LAKE MICHIGAN

STATION/POSITION TIME  TEMP    WIND        PRES    WAVE
                       AIR SEA DIR/SP/G            HT/PER
                 (UTC) (F)     (DEG/KT/KT) (MB)    (FT/S)
CHAMBERS ISLAND  0300   65     230/  1/  7 1012.9R
N MID LAKE BUOY  0250   52 48  220/  8/  8 1011.7R   2/ 5
NORTHPORT PIER   0300   64     280/  5/  9 1012.5R
KEWAUNEE LAKESHO 0300   68                   N/A
SHEBOYGAN LAKESH 0300   71     240/  7/  7 1014.1R
PORT WASHINGTON  0340   70     260/  4/  6 1014.9R
S MID LAKE BUOY  0250   57 51  230/  8/  8 1014.3R   1
KENOSHA   LAKESH 0300   74     260/  4/  7 1014.9R
$$

TC  - TEMPERATURE IN CELSIUS
VSB - VISIBILITY IN STATUTE MILES
WCI - WIND CHILL INDEX
HX  - HEAT INDEX





USA.gov is the U.S. government's official web portal to all federal, state and local government web resources and services.